Weather History for Wheeler AAF, HI

Change the Weather History Date:

Wednesday, August 27, 2014

  Actual Average Record
Temperature  
Mean Temperature 75 °F -  
Max Temperature 83 °F 81 °F 86 °F (1996)
Min Temperature 67 °F 68 °F 64 °F (1998)
Cooling Degree Days 10    
Growing Degree Days 25 (Base 50)    
Moisture  
Dew Point 65 °F    
Average Humidity 70    
Maximum Humidity 88    
Minimum Humidity 49    
Precipitation  
Precipitation 0.00 in - - ()
Sea Level Pressure  
Sea Level Pressure 29.92 in    
Wind  
Wind Speed 7 mph (NNE)    
Max Wind Speed 20 mph    
Max Gust Speed 24 mph    
Visibility 10 miles    
Events Rain    
Averages and records for this station are not official NWS values.
T = Trace of Precipitation, MM = Missing Value Source: NWS Daily Summary

Daily Weather History Graph

Daily Weather History Graph

Search for Another Location

Airport:

Trip Planner

Search our weather history database for the weather conditions in past years. The results will help you decide how hot, cold, wet, or windy it might be!

Date:

Astronomy

Aug. 27, 2014 Rise Set
Actual Time 6:14 AM HST 6:52 PM HST
Civil Twilight 5:51 AM HST 7:15 PM HST
Nautical Twilight 5:24 AM HST 7:41 PM HST
Astronomical Twilight 4:57 AM HST 8:08 PM HST
Moon 8:00 AM HST (8/27) 8:14 PM HST (8/27)
Length of Visible Light 13h 23m
Length of Day
12h 38m
Waxing Crescent, 5% of the Moon is Illuminated
Aug 27
Waxing Crescent
Sep 2
First Quarter
Sep 8
Full
Sep 15
Last Quarter
Sep 23
New

Hourly Weather History & Observations

Time (HST) Temp. Heat Index Dew Point Humidity Pressure Visibility Wind Dir Wind Speed Gust Speed Precip Events Conditions
12:58 AM 69.4 °F - 65.5 °F 87% 29.95 in 10.0 mi WNW 6.9 mph - N/A   Clear
1:58 AM 70.7 °F - 65.3 °F 83% 29.94 in 10.0 mi Variable 1.2 mph - N/A   Scattered Clouds
2:58 AM 69.4 °F - 64.8 °F 85% 29.93 in 10.0 mi WNW 4.6 mph - N/A   Partly Cloudy
3:58 AM 68.9 °F - 64.4 °F 86% 29.92 in 10.0 mi WNW 5.8 mph - N/A   Clear
4:58 AM 68.5 °F - 64.0 °F 85% 29.90 in 10.0 mi WNW 6.9 mph - N/A   Clear
5:58 AM 68.4 °F - 64.0 °F 86% 29.91 in 10.0 mi WNW 5.8 mph - N/A   Partly Cloudy
6:58 AM 67.8 °F - 64.2 °F 88% 29.93 in 10.0 mi NW 3.5 mph - N/A   Clear
7:58 AM 75.2 °F - 66.0 °F 73% 29.93 in 10.0 mi Variable 1.2 mph - N/A   Clear
8:58 AM 77.2 °F - 65.1 °F 66% 29.93 in 10.0 mi NE 5.8 mph - N/A   Scattered Clouds
9:58 AM 80.4 °F 82.3 °F 65.3 °F 60% 29.93 in 10.0 mi NE 5.8 mph - N/A   Scattered Clouds
10:58 AM 81.9 °F 83.7 °F 65.1 °F 57% 29.93 in 10.0 mi NE 11.5 mph - N/A   Mostly Cloudy
11:58 AM 81.3 °F 83.2 °F 65.5 °F 58% 29.92 in 10.0 mi East 11.5 mph 16.1 mph N/A   Mostly Cloudy
12:20 PM 82.4 °F 84.6 °F 66.2 °F 58% 29.95 in 10.0 mi ENE 12.7 mph - N/A Rain Light Rain
12:31 PM 78.8 °F - 66.2 °F 65% 29.95 in 10.0 mi East 6.9 mph - N/A   Overcast
12:58 PM 82.9 °F 84.8 °F 65.1 °F 55% 29.90 in 10.0 mi ENE 11.5 mph - 0.00 in   Scattered Clouds
1:58 PM 83.8 °F 85.6 °F 65.3 °F 53% 29.88 in 10.0 mi ENE 17.3 mph - N/A   Mostly Cloudy
2:58 PM 83.8 °F 84.7 °F 62.6 °F 49% 29.87 in 10.0 mi ENE 19.6 mph - N/A   Clear
3:58 PM 82.8 °F 84.0 °F 63.7 °F 52% 29.86 in 10.0 mi ENE 17.3 mph 24.2 mph N/A   Clear
4:58 PM 81.5 °F 82.9 °F 64.0 °F 55% 29.86 in 10.0 mi NNE 15.0 mph - N/A   Clear
5:58 PM 79.0 °F - 64.0 °F 60% 29.88 in 10.0 mi ENE 15.0 mph 23.0 mph N/A   Clear
6:58 PM 76.5 °F - 65.5 °F 69% 29.88 in 10.0 mi ENE 9.2 mph - N/A   Partly Cloudy
7:58 PM 75.2 °F - 65.8 °F 73% 29.90 in 10.0 mi NE 8.1 mph - N/A   Clear
8:58 PM 74.7 °F - 64.0 °F 69% 29.92 in 10.0 mi Variable 3.5 mph - N/A   Clear
9:58 PM 72.0 °F - 64.2 °F 77% 29.92 in 10.0 mi NW 3.5 mph - N/A   Scattered Clouds
10:46 PM 73.4 °F - 64.4 °F 73% 29.95 in 10.0 mi NNW 4.6 mph - N/A   Light Drizzle
10:58 PM 73.0 °F - 65.8 °F 78% 29.92 in 10.0 mi NNW 4.6 mph - 0.00 in   Drizzle
11:02 PM 73.4 °F - 66.2 °F 78% 29.95 in 10.0 mi NNW 4.6 mph - N/A   Mostly Cloudy
11:58 PM 69.8 °F - 65.1 °F 85% 29.91 in 10.0 mi NW 5.8 mph - 0.00 in   Clear